| time (UTC) | temp F | wind direction | speed MPH | gust MPH | rain 1hr in | rain 24hr in | rain mn in | humidity % | barometer mb |
| 20260505123555 | 91 | 0 | 0.0 | 0.0 | 0.00 | 0.00 | 0.00 | 99 | 730.0 |
| 20260505122027 | 91 | 0 | 0.0 | 0.0 | 0.00 | 0.00 | 0.00 | 99 | 731.0 |
| 20260505120458 | 92 | 0 | 0.0 | 0.0 | 0.00 | 0.00 | 0.00 | 99 | 731.0 |
| 20260505114930 | 92 | 0 | 0.0 | 0.0 | 0.00 | 0.00 | 0.00 | 99 | 731.0 |
| 20260505113401 | 93 | 0 | 0.0 | 0.0 | 0.00 | 0.00 | 0.00 | 99 | 732.0 |
| 20260505111832 | 94 | 0 | 0.0 | 0.0 | 0.00 | 0.00 | 0.00 | 96 | 733.0 |
| 20260505110304 | 95 | 0 | 0.0 | 0.0 | 0.00 | 0.00 | 0.00 | 92 | 733.0 |
| 20260505101640 | 97 | 0 | 0.0 | 0.0 | 0.00 | 0.00 | 0.00 | 85 | 734.0 |
| 20260505100111 | 98 | 0 | 0.0 | 0.0 | 0.00 | 0.00 | 0.00 | 88 | 735.0 |
| 20260505094543 | 99 | 0 | 0.0 | 0.0 | 0.00 | 0.00 | 0.00 | 88 | 736.0 |
| 20260505093015 | 101 | 0 | 0.0 | 0.0 | 0.00 | 0.00 | 0.00 | 86 | 737.0 |
| 20260505091447 | 99 | 0 | 0.0 | 0.0 | 0.00 | 0.00 | 0.00 | 88 | 735.0 |
| 20260505085919 | 101 | 0 | 0.0 | 0.0 | 0.00 | 0.00 | 0.00 | 86 | 737.0 |
| 20260505084351 | 103 | 0 | 0.0 | 0.0 | 0.00 | 0.00 | 0.00 | 82 | 738.0 |
| 20260505082823 | 100 | 0 | 0.0 | 0.0 | 0.00 | 0.00 | 0.00 | 85 | 736.0 |
| 20260505081255 | 103 | 0 | 0.0 | 0.0 | 0.00 | 0.00 | 0.00 | 83 | 738.0 |
| 20260505075726 | 103 | 0 | 0.0 | 0.0 | 0.00 | 0.00 | 0.00 | 84 | 738.0 |
| 20260505074158 | 105 | 0 | 0.0 | 0.0 | 0.00 | 0.00 | 0.00 | 85 | 739.0 |
| 20260505072630 | 102 | 0 | 0.0 | 0.0 | 0.00 | 0.00 | 0.00 | 93 | 738.0 |
| 20260505071102 | 102 | 0 | 0.0 | 0.0 | 0.00 | 0.00 | 0.00 | 97 | 737.0 |
| 20260505065534 | 102 | 0 | 0.0 | 0.0 | 0.00 | 0.00 | 0.00 | 97 | 738.0 |
| 20260505064006 | 98 | 0 | 0.0 | 0.0 | 0.00 | 0.00 | 0.00 | 99 | 735.0 |
| 20260505062438 | 99 | 0 | 0.0 | 0.0 | 0.00 | 0.00 | 0.00 | 99 | 736.0 |
| 20260505060910 | 98 | 0 | 0.0 | 0.0 | 0.00 | 0.00 | 0.00 | 99 | 735.0 |
| 20260505055342 | 94 | 0 | 0.0 | 0.0 | 0.00 | 0.00 | 0.00 | 99 | 732.0 |
| 20260505053814 | 102 | 0 | 0.0 | 0.0 | 0.00 | 0.00 | 0.00 | 99 | 737.0 |
| 20260505052245 | 98 | 0 | 0.0 | 0.0 | 0.00 | 0.00 | 0.00 | 99 | 735.0 |
| 20260505050717 | 96 | 0 | 0.0 | 0.0 | 0.00 | 0.00 | 0.00 | 99 | 734.0 |
| 20260505040525 | 98 | 0 | 0.0 | 0.0 | 0.00 | 0.00 | 0.00 | 99 | 735.0 |
| 20260505034957 | 96 | 0 | 0.0 | 0.0 | 0.00 | 0.00 | 0.00 | 99 | 734.0 |
| 20260505033429 | 97 | 0 | 0.0 | 0.0 | 0.00 | 0.00 | 0.00 | 99 | 734.0 |
| 20260505031901 | 101 | 0 | 0.0 | 0.0 | 0.00 | 0.00 | 0.00 | 99 | 737.0 |
| 20260505030333 | 106 | 0 | 0.0 | 0.0 | 0.00 | 0.00 | 0.00 | 99 | 740.0 |
| 20260505024805 | 103 | 0 | 0.0 | 0.0 | 0.00 | 0.00 | 0.00 | 99 | 739.0 |
| 20260505023236 | 99 | 0 | 0.0 | 0.0 | 0.00 | 0.00 | 0.00 | 99 | 736.0 |
| 20260505021708 | 89 | 0 | 0.0 | 0.0 | 0.00 | 0.00 | 0.00 | 99 | 729.0 |
| 20260505014439 | 84 | 0 | 0.0 | 0.0 | 0.00 | 0.00 | 0.00 | 99 | 726.0 |
| 20260505012911 | 86 | 0 | 0.0 | 0.0 | 0.00 | 0.00 | 0.00 | 99 | 728.0 |
| 20260505011341 | 83 | 0 | 0.0 | 0.0 | 0.00 | 0.00 | 0.00 | 99 | 725.0 |
| 20260505005813 | 80 | 0 | 0.0 | 0.0 | 0.00 | 0.00 | 0.00 | 99 | 724.0 |
| 20260505004245 | 79 | 0 | 0.0 | 0.0 | 0.00 | 0.00 | 0.00 | 99 | 723.0 |
| 20260505002717 | 79 | 0 | 0.0 | 0.0 | 0.00 | 0.00 | 0.00 | 99 | 723.0 |
| 20260505001149 | 78 | 0 | 0.0 | 0.0 | 0.00 | 0.00 | 0.00 | 99 | 722.0 |
| 20260504235621 | 79 | 0 | 0.0 | 0.0 | 0.00 | 0.00 | 0.00 | 99 | 723.0 |
| 20260504234052 | 78 | 0 | 0.0 | 0.0 | 0.00 | 0.00 | 0.00 | 99 | 723.0 |
| 20260504232524 | 77 | 0 | 0.0 | 0.0 | 0.00 | 0.00 | 0.00 | 99 | 722.0 |
| 20260504230956 | 76 | 0 | 0.0 | 0.0 | 0.00 | 0.00 | 0.00 | 99 | 721.0 |
| 20260504225427 | 76 | 0 | 0.0 | 0.0 | 0.00 | 0.00 | 0.00 | 99 | 721.0 |
| 20260504223859 | 76 | 0 | 0.0 | 0.0 | 0.00 | 0.00 | 0.00 | 99 | 721.0 |
| 20260504222331 | 75 | 0 | 0.0 | 0.0 | 0.00 | 0.00 | 0.00 | 99 | 721.0 |
| 20260504220803 | 75 | 0 | 0.0 | 0.0 | 0.00 | 0.00 | 0.00 | 99 | 721.0 |
| 20260504215234 | 75 | 0 | 0.0 | 0.0 | 0.00 | 0.00 | 0.00 | 99 | 721.0 |
| 20260504213706 | 75 | 0 | 0.0 | 0.0 | 0.00 | 0.00 | 0.00 | 99 | 721.0 |
| 20260504212138 | 76 | 0 | 0.0 | 0.0 | 0.00 | 0.00 | 0.00 | 99 | 721.0 |
| 20260504210610 | 77 | 0 | 0.0 | 0.0 | 0.00 | 0.00 | 0.00 | 99 | 721.0 |
| 20260504205042 | 77 | 0 | 0.0 | 0.0 | 0.00 | 0.00 | 0.00 | 99 | 722.0 |
| 20260504203513 | 77 | 0 | 0.0 | 0.0 | 0.00 | 0.00 | 0.00 | 99 | 722.0 |
| 20260504201944 | 77 | 0 | 0.0 | 0.0 | 0.00 | 0.00 | 0.00 | 99 | 721.0 |
| 20260504200416 | 76 | 0 | 0.0 | 0.0 | 0.00 | 0.00 | 0.00 | 99 | 721.0 |
| 20260504194848 | 76 | 0 | 0.0 | 0.0 | 0.00 | 0.00 | 0.00 | 99 | 721.0 |
| 20260504193320 | 76 | 0 | 0.0 | 0.0 | 0.00 | 0.00 | 0.00 | 99 | 721.0 |
| 20260504191752 | 76 | 0 | 0.0 | 0.0 | 0.00 | 0.00 | 0.00 | 99 | 721.0 |
| 20260504190224 | 76 | 0 | 0.0 | 0.0 | 0.00 | 0.00 | 0.00 | 99 | 721.0 |
| 20260504184656 | 75 | 0 | 0.0 | 0.0 | 0.00 | 0.00 | 0.00 | 99 | 720.0 |
| 20260504183128 | 76 | 0 | 0.0 | 0.0 | 0.00 | 0.00 | 0.00 | 99 | 721.0 |
| 20260504181600 | 77 | 0 | 0.0 | 0.0 | 0.00 | 0.00 | 0.00 | 99 | 722.0 |
| 20260504180031 | 79 | 0 | 0.0 | 0.0 | 0.00 | 0.00 | 0.00 | 99 | 723.0 |
| 20260504174503 | 79 | 0 | 0.0 | 0.0 | 0.00 | 0.00 | 0.00 | 99 | 723.0 |
| 20260504172935 | 80 | 0 | 0.0 | 0.0 | 0.00 | 0.00 | 0.00 | 99 | 723.0 |
| 20260504171407 | 80 | 0 | 0.0 | 0.0 | 0.00 | 0.00 | 0.00 | 99 | 723.0 |
| 20260504151022 | 84 | 0 | 0.0 | 0.0 | 0.00 | 0.00 | 0.00 | 99 | 726.0 |
| 20260504140830 | 88 | 0 | 0.0 | 0.0 | 0.00 | 0.00 | 0.00 | 99 | 728.0 |